[[{"header":{"parameterUnit":"m.s-1","parameterCategory":1,"la1":30.2991,"la2":30.254,"lo1":-89.0895,"lo2":-89.0444,"dy":0.0017,"dx":0.0017,"nx":28,"ny":28,"refTime":"2024-02-23T03:00:00:Z","depth":0,"parameterNumber":2,"parameterNumberName":"U-component_of_WINDS"},"data":[0,0,0,0,0,0,0,0,0,0,0,0,0,0,0,0,0,0,0,0,0,0,0,0,0,0,0,0,0,0,0,0,0,0,0,0,0,0,0,0,0,0,0,0,0,0,0,0,0,0,0,0,0,0,0,0,0,0,4.4984,4.4984,0,4.4968,4.4968,4.4968,4.4877,4.4874,4.4872,4.487,4.4856,4.4858,4.486,0,0,0,0,0,0,0,0,0,0,0,0,0,4.4939,4.494,4.4984,4.4984,4.4984,4.4969,4.4968,4.4968,4.4877,4.4874,4.4872,4.4869,4.4856,4.4858,4.486,0,0,0,0,0,0,0,0,0,0,0,0,0,4.4945,4.4941,4.4984,4.4936,4.4932,4.4969,4.4968,4.4968,4.4877,4.4874,4.4871,4.4868,4.4855,4.4857,4.486,4.4942,0,0,4.4868,4.4869,0,0,0,0,0,0,0,0,4.4944,4.4946,4.4943,4.494,4.4935,4.4921,4.4947,4.4959,4.4878,4.4898,4.487,4.4866,4.4881,4.4881,4.4885,4.4941,4.4941,4.4868,4.487,4.4871,4.4871,0,0,0,0,0,0,0,4.4944,4.4946,4.4978,4.4944,4.4938,4.4917,4.4914,4.4949,4.4908,4.4896,4.4889,4.4889,4.4878,4.4883,4.4884,4.4941,4.4868,4.487,4.4872,4.4873,4.5068,4.5072,0,0,0,0,0,0,4.495,4.4947,4.4978,4.4977,4.4931,4.4921,4.4917,4.4929,4.4908,4.4901,4.4892,4.4885,4.488,4.4881,4.4883,4.4981,4.4871,4.4873,4.4874,4.5065,4.5069,4.5073,0,0,0,0,0,0,4.4949,4.4954,4.4979,4.496,4.4962,4.4925,4.4938,4.493,4.4935,4.4904,4.4897,4.4905,4.4878,4.488,4.4929,4.4979,4.4874,4.4876,4.506,4.5066,4.5071,4.5176,0,0,0,0,0,0,4.4948,4.4954,4.4983,4.4962,4.4963,4.5024,4.4941,4.4932,4.494,4.4931,4.4914,4.4908,4.4875,4.4926,4.4932,4.4981,4.4878,4.5056,4.5063,4.5069,4.5168,4.5184,4.5198,0,0,0,0,0,4.4947,4.5013,4.4985,4.499,4.4999,4.5027,4.5028,4.4988,4.4944,4.4975,4.4955,4.4909,4.4973,4.4932,4.4937,4.4988,4.5052,4.5061,4.5069,4.5161,4.5181,4.5198,0,0,0,0,0,0,4.5041,4.5009,4.4978,4.5039,4.5036,4.5011,4.5048,4.501,4.502,4.5011,4.4961,4.4959,4.5016,4.5007,4.4961,4.5069,4.5005,4.5015,4.5073,4.5092,4.5107,4.5109,4.4881,0,0,0,0,0,4.5069,4.5093,4.5064,4.5121,4.5121,4.5085,4.5096,4.5065,4.5061,4.506,4.5043,4.5042,4.5062,4.5076,4.5092,4.5166,4.5163,4.5204,4.5219,4.5232,4.5242,4.5284,4.5303,4.51,4.51,4.51,0,0,4.5127,4.5112,4.513,4.5139,4.5134,4.5162,4.5085,4.5116,4.5138,4.5064,4.5111,4.5099,4.5095,4.5158,4.5184,4.5151,4.5297,4.5243,4.5253,4.5255,4.5294,4.5313,4.5331,4.5106,4.5105,4.5104,0,0,4.5247,4.5237,4.5285,4.5281,4.5275,4.5251,4.5263,4.5244,4.5234,4.528,4.5227,4.5252,4.5286,4.5286,4.529,4.5415,4.5374,4.5422,4.5502,4.5544,4.556,4.5574,4.5621,4.5639,4.5431,4.5431,4.5432,0,4.532,4.5358,4.5314,4.5351,4.5358,4.5293,4.5343,4.5342,4.5341,4.5349,4.5311,4.5356,4.5348,4.5412,4.5443,4.5448,4.5462,4.5424,4.5561,4.5575,4.5587,4.5632,4.5649,4.5437,4.5437,4.5436,4.5436,0,4.545,4.5478,4.5518,4.552,4.5531,4.5574,4.5538,4.5555,4.5525,4.5506,4.5556,4.5544,4.5559,4.5571,4.5541,4.5633,4.5613,4.5569,4.5504,4.5613,4.5655,4.5671,4.5446,4.5444,4.5442,4.5441,0,0,4.5627,4.5606,4.5622,4.5624,4.5613,4.5635,4.5676,4.5691,4.5708,4.571,4.5746,4.5778,4.5739,4.5745,4.5715,4.5751,4.5855,4.5703,4.5702,4.5734,4.5959,4.5993,4.6013,4.5827,4.583,4.5833,4.596,0,4.5745,4.5813,4.5777,4.5851,4.5879,4.582,4.5857,4.5856,4.584,4.5862,4.5845,4.587,4.5815,4.5818,4.5851,4.5835,4.59,4.5825,4.5862,4.5864,4.5867,4.6034,4.607,4.619,4.5976,4.5978,4.598,0,4.589,4.59,4.5978,4.5966,4.5976,4.6009,4.6022,4.6043,4.6042,4.6028,4.6036,4.5999,4.6041,4.5977,4.6036,4.5987,4.6,4.5995,4.5998,4.6002,4.593,4.6045,4.6227,4.6247,4.6005,4.6003,4.6001,0,4.6015,4.6048,4.61,4.6103,4.6089,4.6115,4.611,4.6105,4.6118,4.6129,4.6138,4.6154,4.6164,4.6178,4.6147,4.6102,4.6213,4.6144,4.6205,4.6206,4.6231,4.6231,4.6422,4.6237,4.6237,4.6236,4.6236,0,4.6151,4.6202,4.6157,4.6189,4.6245,4.6203,4.626,4.625,4.6247,4.6278,4.6227,4.6258,4.6214,4.6241,4.6217,4.6272,4.6276,4.6268,4.6262,4.6274,4.6275,4.6283,4.6275,4.6241,4.624,4.6239,4.6238,0,4.6301,4.6272,4.6325,4.6309,4.6306,4.6349,4.6335,4.6366,4.6347,4.6387,4.6394,4.6366,4.6396,4.6366,4.6393,4.6377,4.6452,4.6432,4.6453,4.6448,4.6512,4.6507,4.6716,4.6742,4.6539,4.6541,4.6542,0,4.639,4.6428,4.6417,4.6434,4.6433,4.646,4.6473,4.6435,4.6451,4.6455,4.6486,4.6511,4.6529,4.6579,4.6562,4.6584,4.6565,4.6637,4.6568,4.6581,4.657,4.6569,4.6574,4.6652,4.6654,4.6656,4.6657,0,4.6553,4.6538,4.6558,4.6576,4.6593,4.6604,4.6612,4.6629,4.6589,4.6611,4.664,4.6654,4.6683,4.671,4.6727,4.6724,4.6686,4.6679,4.6695,4.6709,4.6721,4.6718,4.6494,4.6675,4.6673,4.6672,4.6671,4.667,4.6677,4.671,4.6708,4.6733,4.6735,4.6745,4.6774,4.676,4.6784,4.6804,4.678,4.6818,4.6819,4.6838,4.6841,4.6871,4.6841,4.6863,4.6869,4.6875,4.6886,4.6715,4.6873,4.6873,4.6872,4.6872,4.6871,0,4.684,4.6836,4.686,4.6874,4.6895,4.6856,4.6864,4.6885,4.6918,4.6922,4.6942,4.6978,4.7005,4.6992,4.7015,4.7042,4.7026,4.705,4.7049,4.705,4.691,4.6895,4.7064,4.7064,4.7064,4.7064,4.7064,4.7064,4.6927,4.6981,4.6967,4.7023,4.7019,4.7055,4.7064,4.7073,4.7077,4.7119,4.7142,4.7132,4.7131,4.7155,4.7179,4.7174,4.7187,4.7218,4.7208,4.7078,4.7059,4.7041,4.7027,4.7221,4.7221,4.7345,4.7347,4.7348]},{"header":{"parameterUnit":"m.s-1","parameterCategory":1,"la1":30.2991,"la2":30.254,"lo1":-89.0895,"lo2":-89.0444,"dy":0.0017,"dx":0.0017,"nx":28,"ny":28,"refTime":"2024-02-23T03:00:00:Z","depth":0,"parameterNumber":3,"parameterNumberName":"V-component_of_WINDS"},"data":[0,0,0,0,0,0,0,0,0,0,0,0,0,0,0,0,0,0,0,0,0,0,0,0,0,0,0,0,0,0,0,0,0,0,0,0,0,0,0,0,0,0,0,0,0,0,0,0,0,0,0,0,0,0,0,0,0,0,0.0283,0.0283,0,0.0304,0.0305,0.0305,0.0308,0.0307,0.0307,0.0307,0.0329,0.033,0.033,0,0,0,0,0,0,0,0,0,0,0,0,0,0.0243,0.0244,0.0283,0.0283,0.0283,0.0304,0.0305,0.0305,0.0308,0.0307,0.0307,0.0307,0.0329,0.033,0.0331,0,0,0,0,0,0,0,0,0,0,0,0,0,0.0262,0.0244,0.0283,0.0287,0.0288,0.0304,0.0305,0.0305,0.0308,0.0307,0.0307,0.0307,0.0328,0.033,0.0331,0.0344,0,0,0.0334,0.0335,0,0,0,0,0,0,0,0,0.0261,0.0264,0.0286,0.0287,0.0288,0.0303,0.0299,0.0318,0.0308,0.03,0.0307,0.0307,0.0321,0.0322,0.0327,0.0345,0.0346,0.0334,0.0335,0.0336,0.0336,0,0,0,0,0,0,0,0.026,0.0263,0.0291,0.0287,0.0288,0.0288,0.029,0.0303,0.0312,0.0301,0.0301,0.0304,0.0321,0.0326,0.0328,0.0346,0.0334,0.0335,0.0336,0.0337,0.0376,0.0376,0,0,0,0,0,0,0.0258,0.0262,0.0291,0.0292,0.0273,0.0289,0.0292,0.0298,0.0312,0.0313,0.0304,0.0304,0.0324,0.0326,0.0328,0.0345,0.0336,0.0337,0.0337,0.0376,0.0376,0.0377,0,0,0,0,0,0,0.0257,0.026,0.029,0.0277,0.0281,0.029,0.0298,0.0299,0.0304,0.0314,0.0316,0.0307,0.0324,0.0327,0.034,0.0346,0.0337,0.0338,0.0375,0.0376,0.0376,0.0378,0,0,0,0,0,0,0.0256,0.026,0.0266,0.0277,0.0281,0.0301,0.0298,0.03,0.0306,0.0306,0.0318,0.0319,0.0324,0.0338,0.0341,0.0347,0.0339,0.0375,0.0376,0.0376,0.0377,0.0379,0.0379,0,0,0,0,0,0.0254,0.0265,0.0266,0.0269,0.0288,0.0302,0.0304,0.0309,0.0307,0.0312,0.0318,0.0319,0.0344,0.034,0.0343,0.0349,0.0375,0.0375,0.0376,0.0377,0.0378,0.0379,0,0,0,0,0,0,0.0254,0.0267,0.0268,0.0283,0.0291,0.0302,0.0309,0.0311,0.032,0.032,0.0325,0.0328,0.0341,0.0346,0.0341,0.0363,0.0359,0.0361,0.0359,0.036,0.0361,0.036,0.034,0,0,0,0,0,0.0256,0.0266,0.0276,0.0289,0.0293,0.03,0.0306,0.0309,0.0318,0.0322,0.0329,0.0338,0.0348,0.0354,0.0364,0.0378,0.038,0.0384,0.0385,0.0386,0.0387,0.0394,0.0396,0.0379,0.0379,0.0379,0,0,0.026,0.0268,0.0274,0.0289,0.0296,0.0306,0.0303,0.0314,0.0321,0.0324,0.0337,0.0342,0.0352,0.0366,0.0372,0.0371,0.0392,0.0387,0.0387,0.0388,0.0395,0.0397,0.0398,0.038,0.038,0.0379,0,0,0.0272,0.0279,0.029,0.0296,0.0307,0.0312,0.0314,0.0325,0.0329,0.0342,0.0343,0.0352,0.0369,0.0376,0.0382,0.0395,0.0396,0.0398,0.0403,0.041,0.0411,0.0413,0.0417,0.0419,0.0399,0.0399,0.0399,0,0.0275,0.029,0.0295,0.0306,0.0312,0.0314,0.0325,0.0331,0.0344,0.0348,0.0346,0.0367,0.0374,0.0389,0.0392,0.0397,0.04,0.0397,0.0411,0.0412,0.0413,0.0418,0.0419,0.0399,0.0399,0.0399,0.0399,0,0.0294,0.0304,0.0312,0.0324,0.0331,0.0341,0.0347,0.0354,0.0356,0.0361,0.0374,0.0382,0.0393,0.0397,0.0399,0.0412,0.0411,0.041,0.0406,0.0415,0.0419,0.0421,0.0399,0.0399,0.0399,0.0399,0,0,0.0307,0.0321,0.0324,0.0329,0.034,0.0349,0.0359,0.0369,0.0375,0.0383,0.0392,0.0406,0.0405,0.0411,0.0414,0.042,0.043,0.0419,0.0419,0.042,0.0444,0.0445,0.0447,0.043,0.0431,0.0431,0.0444,0,0.032,0.0339,0.0343,0.0359,0.0369,0.037,0.0379,0.0387,0.0391,0.0399,0.0404,0.0414,0.0412,0.0416,0.0422,0.0428,0.0435,0.0427,0.0438,0.0439,0.0436,0.0449,0.0451,0.0462,0.0445,0.0446,0.0446,0,0.0339,0.0347,0.0364,0.0374,0.0378,0.0386,0.0395,0.0403,0.0412,0.0415,0.0421,0.0423,0.0434,0.0429,0.0443,0.0438,0.0442,0.0446,0.0446,0.0448,0.0443,0.0451,0.0466,0.0467,0.0448,0.0448,0.0448,0,0.0347,0.0362,0.0375,0.0379,0.039,0.0396,0.0401,0.0409,0.0415,0.0423,0.0427,0.0436,0.0441,0.0448,0.0453,0.0449,0.0466,0.0463,0.0469,0.0469,0.0473,0.0472,0.0488,0.0476,0.0476,0.0475,0.0475,0,0.0361,0.0371,0.0378,0.0386,0.0397,0.0401,0.0412,0.0417,0.0424,0.0432,0.0434,0.0441,0.0446,0.0455,0.0458,0.0469,0.0471,0.0473,0.0474,0.0473,0.0473,0.0477,0.0476,0.0476,0.0476,0.0476,0.0476,0,0.0372,0.0377,0.039,0.04,0.0402,0.041,0.0418,0.0425,0.0429,0.0439,0.0442,0.0448,0.0458,0.0463,0.0475,0.0477,0.0489,0.0489,0.0486,0.0487,0.0493,0.0492,0.0511,0.0514,0.05,0.05,0.05,0,0.0381,0.0389,0.0399,0.0404,0.0409,0.0418,0.0424,0.0428,0.0434,0.0444,0.045,0.0459,0.0467,0.0482,0.0488,0.0497,0.0497,0.0504,0.0499,0.0497,0.0497,0.0497,0.0498,0.0505,0.0505,0.0505,0.0505,0,0.0397,0.0398,0.0407,0.0416,0.0423,0.0431,0.0438,0.0442,0.0448,0.0454,0.0464,0.047,0.0482,0.0491,0.05,0.0505,0.0506,0.0506,0.0508,0.0507,0.0505,0.0506,0.0489,0.0506,0.0506,0.0506,0.0506,0.0506,0.0407,0.0414,0.0422,0.0431,0.0437,0.0443,0.045,0.0455,0.0463,0.0473,0.0475,0.0485,0.0493,0.0505,0.051,0.0517,0.0516,0.0519,0.052,0.052,0.0521,0.0504,0.0519,0.0519,0.0519,0.0519,0.0519,0,0.0422,0.0427,0.0436,0.0446,0.0453,0.0453,0.0461,0.0466,0.0475,0.0482,0.049,0.0501,0.0509,0.0515,0.0524,0.0529,0.053,0.0531,0.0531,0.0532,0.0521,0.0519,0.0531,0.0531,0.0531,0.0531,0.0531,0.0531,0.0431,0.0443,0.0445,0.0459,0.0464,0.0474,0.0479,0.0485,0.049,0.0502,0.0509,0.0513,0.0519,0.0529,0.0536,0.0538,0.0541,0.0543,0.0544,0.0534,0.0533,0.0532,0.0529,0.0543,0.0543,0.0554,0.0554,0.0555]}]]